AirNav   Bose ProFlight Series 2 Headset
 
 1545 users online  

5NC3 Reed Mine Airport
Locust, North Carolina, USA

GOING TO LOCUST?


FAA INFORMATION EFFECTIVE 27 FEBRUARY 2020

Location

FAA Identifier: 5NC3
Lat/Long: 35-17-57.7900N 080-27-28.2000W
35-17.963167N 080-27.470000W
35.2993861,-80.4578333
(estimated)
Elevation: 581 ft. / 177 m (estimated)
From city: 3 miles NNW of LOCUST, NC
Time zone: UTC -5 (UTC -4 during Daylight Saving Time)
Zip code: 28097

Airport Operations

Airport use: Private use. Permission required prior to landing
Activation date: 01/2018
Control tower: no
ARTCC: ATLANTA CENTER
FSS: RALEIGH FLIGHT SERVICE STATION
Attendance: 
Segmented circle: no

Airport Communications

WX AWOS-3 at JQF (13 nm NW): 133.675 (704-785-2145)
WX AWOS-3 at VUJ (17 nm NE): 128.175 (704-986-2097)
WX ASOS at EQY (19 nm SW): 135.775 (704-283-5185)

Nearby radio navigation aids

VOR radial/distance  VOR name  Freq  Var
CLTr080/25.1CHARLOTTE VOR/DME115.0005W
CTFr350/40.0CHESTERFIELD VOR/DME108.2003W

 
NDB name  Hdg/Dist  Freq  Var  ID
STONIA085/34.926006WGHJ --. .... .---
LANCASTER037/39.840007WLKR .-.. -.- .-.

Airport Services

Runway Information

Runway 3/21

Dimensions: 2000 x 75 ft. / 610 x 23 m
Surface: turf, in fair condition
RUNWAY 3  RUNWAY 21
Traffic pattern: leftleft

Airport Ownership and Management from official FAA records

Ownership: Privately-owned
Owner: CHRISTOPHER LOGAN
9659 WIDESPREAD AVE NW
CONCORD, NC 28027
Phone 704-773-1676
Manager: CHRISTOPHER LOGAN
9659 WIDESPREAD AVE NW
CONCORD, NC 28027
Phone 704-773-1676

Additional Remarks

FOR CD CTC ATLANTA ARTCC AT 770-210-7692.

Instrument Procedures

There are no published instrument procedures at 5NC3.

Some nearby airports with instrument procedures:

KJQF - Concord-Padgett Regional Airport (13 nm NW)
KVUJ - Stanly County Airport (17 nm NE)
KEQY - Charlotte-Monroe Executive Airport (19 nm SW)
KRUQ - Mid-Carolina Regional Airport (21 nm N)
KCLT - Charlotte/Douglas International Airport (25 nm W)
 
Loc | Ops | Rwys | IFR | FBO | Links
Com | Nav | Svcs | Stats | Notes
Aerial photo
No photo
 
Airport distance calculator
Flying to Reed Mine Airport? Find the distance to fly.

From to 5NC3

Sunrise and sunset
Times for 27-Feb-2020
 Local
(UTC-5)
 Zulu
(UTC)
Morning civil twilight06:3011:30
Sunrise06:5511:55
Sunset18:1423:14
Evening civil twilight18:4023:40

Current date and time
Zulu (UTC)  27-Feb-2020 20:42:37
Local (UTC-5)  27-Feb-2020 15:42:37
 
METAR
KJQF 
14nm W 
271953Z 29015G19KT 10SM CLR 09/M09 A3005
KVUJ 
17nm NE 
272015Z AUTO 27013G18KT 250V310 10SM CLR 09/M09 A3007 RMK AO2 T00891089
KEQY 
19nm SW 
271953Z AUTO 28009KT 10SM CLR 09/M09 A3003 RMK AO2 SLP183 T00941094
KRUQ 
21nm N 
272015Z AUTO 25006G15KT 10SM CLR 08/M08 A3001 RMK AO2 T00801085
KCLT 
25nm W 
271952Z 30010G16KT 250V320 10SM FEW060 10/M08 A3004 RMK AO2 SLP172 T01001078
KAFP 
25nm SE 
272015Z AUTO 29008G14KT 250V310 10SM CLR 11/M11 A3003 RMK AO2 T01071115
TAF
KCLT 
25nm W 
271737Z 2718/2824 30014KT P6SM SKC FM280000 28006KT P6SM SKC FM280800 24004KT P6SM FEW250 FM281700 25010KT P6SM SCT100
NOTAMs
Click for the latest NOTAMs
NOTAMs are issued by the DoD/FAA and will open in a separate window not controlled by AirNav.

 

 
 

Would you like to see your business listed on this page?

 If your business provides an interesting product or service to pilots, flight crews, aircraft, or users of the Reed Mine Airport, you should consider listing it here.  To start the listing process, click on the button below
 
Add a business
 

Other Pages about Reed Mine Airport

Update a link
 
Copyright © AirNav, LLC. All rights reserved. Privacy Policy  Contact